Regional Weather Roundup
Issued by NWS

Home | Current Version | Previous Version | Text Only | Print | Product List | Glossary On
Versions: 1 2 3 4 5 6 7 8 9 10 11 12 13 14 15 16 17 18 19 20 21 22 23 24 25 26 27 28 29 30 31 32 33 34 35 36 37 38 39 40 41 42 43 44 45 46 47 48 49 50
000
ASUS45 KABQ 231801
RWRNM
WEATHER ROUNDUP FOR NEW MEXICO
NATIONAL WEATHER SERVICE ALBUQUERQUE NM
1200 PM MDT WED APR 23 2014

NOTE: "FAIR" MEANS FEW OR NO CLOUDS BELOW 12,000 FEET AGL WITH NO
       SIGNIFICANT WEATHER OR OBSTRUCTIONS TO VISION.

      THIS PRODUCT IS RELEASED AS TWO VERSIONS.  ONE VERSION NEAR
      THE TOP OF THE HOUR CONTAINING PRELIMINARY DATA FROM ALBUQUERQUE
      AND OTHER STATIONS.  A FINAL VERSION WITH ADDITIONAL DATA IS
      ISSUED ABOUT 10 MINUTES AFTER THE HOUR.

NMZ501-503-504-510>518-231900-
NORTHWEST PLATEAU/NORTHCENTRAL MOUNTAINS

CITY           SKY/WX    TMP DP  RH WIND       PRES   REMARKS
FARMINGTON     PTSUNNY   64  16  15 NW17G25   29.83F
6HR MIN TEMP:  48; 6HR MAX TEMP:  66;

SANTA FE       SUNNY     67  22  18 W20G25    29.88F
6HR MIN TEMP:  45; 6HR MAX TEMP:  67;

TAOS           MOSUNNY   64  21  19 W16G28    29.89S

$$
NMZ402-403-502-505>509-231900-
WESTCENTRAL MOUNTAINS/SOUTHWEST MOUNTAINS

CITY           SKY/WX    TMP DP  RH WIND       PRES   REMARKS
GALLUP         MOSUNNY   63  21  20 SW22G38   29.90F
6HR MIN TEMP:  46; 6HR MAX TEMP:  64;

SILVER CITY    SUNNY     70  18  13 W17G25    29.97S

$$
NMZ407-409-411-412-231900-
SOUTHERN DESERTS

CITY           SKY/WX    TMP DP  RH WIND       PRES   REMARKS
DEMING         SUNNY     76  21  12 W20G28    29.89F
6HR MIN TEMP:  59; 6HR MAX TEMP:  77;

HOLLOMAN AFB   SUNNY     78  22  12 SW18G25   29.86F
T OR C         SUNNY     75  16  10 S14G23    29.84F
6HR MIN TEMP:  56; 6HR MAX TEMP:  76;


$$
NMZ519>523-231900-
CENTRAL VALLEYS/CENTRAL HIGHLANDS

CITY           SKY/WX    TMP DP  RH WIND       PRES   REMARKS
ALBUQUERQUE    MOSUNNY   69  21  16 SW13      29.87F
6HR MIN TEMP:  53; 6HR MAX TEMP:  70;

DOUBLE EAGLE   MOSUNNY   68  21  17 W17G23    29.89F
CLINES CORNERS SUNNY     65  20  17 W21G32    29.90F
6HR MIN TEMP:  49; 6HR MAX TEMP:  65;

BELEN          FAIR      72  21  14 S10G16    29.86F
6HR MIN TEMP:  53; 6HR MAX TEMP:  72;

SOCORRO        NOT AVBL

$$
NMZ524>526-539-540-231900-
SOUTHCENTRAL MOUNTAINS

CITY           SKY/WX    TMP DP  RH WIND       PRES   REMARKS
RUIDOSO        NOT AVBL

$$
NMZ527>531-231900-
NORTHEAST HIGHLANDS/NORTHEAST PLAINS

CITY           SKY/WX    TMP DP  RH WIND       PRES   REMARKS
LAS VEGAS      SUNNY     66  21  18 SW26G33   29.86F
6HR MIN TEMP:  44; 6HR MAX TEMP:  66;

RATON          SUNNY     70  21  15 SW29G40   29.75F
6HR MIN TEMP:  47; 6HR MAX TEMP:  72;

CLAYTON        MOSUNNY   77  33  20 SW20G29   29.72F
6HR MIN TEMP:  55; 6HR MAX TEMP:  78;


$$
NMZ532>537-231900-
EASTCENTRAL PLAINS

CITY           SKY/WX    TMP DP  RH WIND       PRES   REMARKS
TUCUMCARI      PTSUNNY   80  34  19 SW21G28   29.73F
6HR MIN TEMP:  62; 6HR MAX TEMP:  80;

CANNON AFB     PTSUNNY   78  32  18 SW25      29.79F
6HR MIN TEMP:  60; 6HR MAX TEMP:  78;

CLOVIS AIRPORT PTSUNNY   79  37  22 SW22G31   29.82F

$$
NMZ028-029-538-231900-
SOUTHEAST PLAINS

CITY           SKY/WX    TMP DP  RH WIND       PRES   REMARKS
ROSWELL        MOSUNNY   83  19   9 S10G22    29.76F
6HR MIN TEMP:  62; 6HR MAX TEMP:  85;

CARLSBAD       PTSUNNY   84  22  10 W18G33    29.80F
6HR MIN TEMP:  61; 6HR MAX TEMP:  84;

HOBBS          PTSUNNY   82  32  16 SW21G28   29.84F


$$



USA.gov is the U.S. government's official web portal to all federal, state and local government web resources and services.